DW6345 Murcia ES current weather conditions

sailwx.info

Wind from 263 at 1 knots gusting 2

Air temperature 10.6° C
Dewpoint 8.8° C

Last reported at 2018-Jan-19 07:09 UTC.
Time now 2018-Jan-19 07:55 UTC

Location: N 37°60' W 001°06'.
View on Google Maps.

See reports from other nearby stations

  
Tides and Currents Weather Stations Pressure Air Temp Water Temp Dewpoint Dewpoint Depression Visibility Wind Speed Wind Dir Waves Ship Positions
date/time (UTC)wind fromknots sea level pressurealtimeterstation pressurevisibilityair tempwater tempwave heightnotes
2018-Jan-19 07:09 263 1 gusting 2 10.6
2018-Jan-19 07:04 264 1 gusting 4 10.6
2018-Jan-19 06:59 264 1 gusting 4 10.0
2018-Jan-19 06:54 263 1 gusting 2 10.0
2018-Jan-19 06:49 263 1 gusting 4 10.0
2018-Jan-19 06:44 287 1 gusting 4 10.0
2018-Jan-19 06:39 287 1 gusting 2 10.0
2018-Jan-19 06:34 287 2 gusting 2 10.0
2018-Jan-19 06:29 287 2 gusting 4 10.0
2018-Jan-19 06:24 288 2 gusting 4 10.0
2018-Jan-19 06:19 288 1 gusting 5 10.0
2018-Jan-19 06:14 278 1 gusting 4 10.6
2018-Jan-19 06:09 283 1 gusting 4 10.6
2018-Jan-19 06:04 284 1 gusting 2 10.6
2018-Jan-19 05:59 244 1 gusting 2 10.6
2018-Jan-19 05:54 244 3 gusting 5 10.6
2018-Jan-19 05:49 243 4 gusting 4 10.6
2018-Jan-19 05:44 215 2 gusting 5 10.6
2018-Jan-19 05:39 212 1 gusting 6 10.6
2018-Jan-19 05:34 220 1 gusting 5 10.6
2018-Jan-19 05:29 196 1 gusting 4 10.6
2018-Jan-19 05:24 210 2 gusting 4 10.6
2018-Jan-19 05:19 206 2 gusting 4 10.6
2018-Jan-19 05:09 232 1 gusting 5 10.6
2018-Jan-19 04:59 242 2 gusting 4 10.6
2018-Jan-19 04:54 286 2 gusting 6 10.6
2018-Jan-19 04:44 273 2 gusting 5 11.1
2018-Jan-19 04:39 262 2 gusting 4 11.1
2018-Jan-19 04:34 250 2 gusting 4 10.6
2018-Jan-19 04:29 251 2 gusting 4 10.6
2018-Jan-19 04:24 176 3 gusting 4 10.6
2018-Jan-19 04:19 177 4 gusting 6 10.6
2018-Jan-19 04:14 210 4 gusting 6 10.6
2018-Jan-19 04:09 112 4 gusting 6 10.6
2018-Jan-19 03:59 272 1 gusting 6 10.6
2018-Jan-19 03:54 289 1 gusting 6 11.1
2018-Jan-19 03:49 185 1 gusting 2 11.1
2018-Jan-19 03:44 170 1 gusting 4 11.1
2018-Jan-19 03:39 170 1 gusting 4 11.1
2018-Jan-19 03:34 170 1 gusting 4 11.1
2018-Jan-19 03:24 212 1 gusting 1 11.1
2018-Jan-19 03:19 212 1 gusting 1 11.1
2018-Jan-19 03:14 212 1 gusting 4 11.1
2018-Jan-19 03:09 238 1 gusting 4 11.1
2018-Jan-19 03:04 253 1 gusting 4 11.1
2018-Jan-19 02:54 253 2 gusting 1 11.1
2018-Jan-19 02:49 253 2 gusting 4 11.1
2018-Jan-19 02:44 260 2 gusting 5 11.1
2018-Jan-19 02:39 237 2 gusting 5 11.1
2018-Jan-19 02:34 191 2 gusting 5 11.1
2018-Jan-19 02:29 204 2 gusting 4 11.1
2018-Jan-19 02:24 245 4 gusting 5 11.1
2018-Jan-19 02:19 199 5 gusting 6 11.1
2018-Jan-19 02:14 206 4 gusting 8 11.1
2018-Jan-19 02:09 208 4 gusting 6 11.1
2018-Jan-19 01:59 217 4 gusting 6 11.1
2018-Jan-19 01:54 226 4 gusting 6 11.1
2018-Jan-19 01:49 216 4 gusting 6 11.1
2018-Jan-19 01:44 191 4 gusting 6 11.1
2018-Jan-19 01:39 194 4 gusting 6 11.1
2018-Jan-19 01:34 178 4 gusting 5 11.1
2018-Jan-19 01:29 210 4 gusting 6 11.1
2018-Jan-19 01:24 237 4 gusting 6 11.1
2018-Jan-19 01:19 194 4 gusting 6 11.1
2018-Jan-19 01:14 167 3 gusting 6 11.1
2018-Jan-19 01:09 196 2 gusting 6 11.1
2018-Jan-19 01:04 181 2 gusting 5 11.1
2018-Jan-19 00:59 194 1 gusting 4 11.1
2018-Jan-19 00:54 239 2 gusting 4 11.1
2018-Jan-19 00:49 240 2 gusting 4 11.1
2018-Jan-19 00:44 279 2 gusting 5 11.1
2018-Jan-19 00:39 284 2 gusting 4 11.1
2018-Jan-19 00:24 305 2 gusting 4 11.7
2018-Jan-19 00:19 311 2 gusting 5 11.7
2018-Jan-19 00:14 296 2 gusting 5 11.7
2018-Jan-19 00:04 250 1 gusting 2 11.7
2018-Jan-18 23:59 246 1 gusting 4 11.7
2018-Jan-18 23:54 200 2 gusting 4 11.7
2018-Jan-18 23:49 188 2 gusting 4 11.7
2018-Jan-18 23:44 207 2 gusting 4 11.7
2018-Jan-18 23:39 221 2 gusting 4 11.7
2018-Jan-18 23:34 213 2 gusting 4 11.7
2018-Jan-18 23:29 201 2 gusting 5 11.7
2018-Jan-18 23:24 223 3 gusting 5 11.7
2018-Jan-18 23:19 184 4 gusting 4 11.7
2018-Jan-18 23:14 171 3 gusting 6 11.7
2018-Jan-18 23:09 179 2 gusting 6 11.7
2018-Jan-18 23:04 196 2 gusting 5 11.7
2018-Jan-18 22:59 170 2 gusting 6 11.7
2018-Jan-18 22:54 156 2 gusting 6 11.7
2018-Jan-18 22:49 141 1 gusting 5 11.7
2018-Jan-18 22:44 298 1 gusting 1 11.7
2018-Jan-18 22:39 298 1 gusting 4 11.7
2018-Jan-18 22:34 308 2 gusting 4 11.7
2018-Jan-18 22:29 313 2 gusting 5 11.7
2018-Jan-18 22:24 306 2 gusting 4 11.7
2018-Jan-18 22:14 325 1 gusting 5 11.7
2018-Jan-18 22:09 301 0 gusting 4 11.7
2018-Jan-18 21:59 132 1 gusting 1 11.7
2018-Jan-18 21:49 132 12.2
2018-Jan-18 21:44 132 12.2
2018-Jan-18 21:39 132 12.2
2018-Jan-18 21:34 132 0 gusting 0 12.2
2018-Jan-18 21:29 132 1 gusting 0 12.2
2018-Jan-18 21:24 132 1 gusting 2 12.2
2018-Jan-18 21:19 132 1 gusting 4 12.2
2018-Jan-18 21:14 132 1 gusting 2 12.2
2018-Jan-18 21:09 132 0 gusting 4 12.2
2018-Jan-18 21:04 132 1 gusting 1 12.2
2018-Jan-18 20:59 132 1 gusting 1 12.2
2018-Jan-18 20:54 132 2 gusting 4 12.2
2018-Jan-18 20:49 132 2 gusting 4 12.2
2018-Jan-18 20:44 131 2 gusting 5 12.2
2018-Jan-18 20:39 133 1 gusting 5 12.2
2018-Jan-18 20:34 129 1 gusting 5 12.2
2018-Jan-18 20:29 303 1 gusting 1 12.2
2018-Jan-18 20:24 303 1 gusting 1 12.2
2018-Jan-18 20:14 293 2 gusting 2 12.2
2018-Jan-18 20:09 297 4 gusting 6 12.2
2018-Jan-18 19:54 325 2 gusting 4 12.2
2018-Jan-18 19:49 343 1 gusting 5 12.2
2018-Jan-18 19:44 342 1 gusting 5 12.8
2018-Jan-18 19:39 325 1 gusting 4 12.8
2018-Jan-18 19:34 035 1 gusting 4 12.8
2018-Jan-18 19:29 036 1 gusting 2 12.8
2018-Jan-18 19:19 037 1 gusting 4 13.3
2018-Jan-18 19:14 054 2 gusting 4 13.3
2018-Jan-18 19:09 065 2 gusting 5 13.3
2018-Jan-18 19:04 110 2 gusting 5 13.3
2018-Jan-18 18:49 114 2 gusting 6 12.8
2018-Jan-18 18:39 112 2 gusting 5 12.8
2018-Jan-18 18:34 103 2 gusting 4 12.8
2018-Jan-18 18:29 068 2 gusting 5 12.8
2018-Jan-18 18:09 068 4 gusting 6 13.3
2018-Jan-18 18:04 058 4 gusting 6 13.3
2018-Jan-18 17:59 051 4 gusting 6 13.3
2018-Jan-18 17:54 053 4 gusting 5 13.3
2018-Jan-18 17:49 053 4 gusting 6 13.3
2018-Jan-18 17:44 050 4 gusting 6 13.3
2018-Jan-18 17:39 050 4 gusting 6 13.3
2018-Jan-18 17:29 028 4 gusting 6 13.3
2018-Jan-18 17:19 024 4 gusting 6 13.9
2018-Jan-18 17:09 029 4 gusting 6 13.9
2018-Jan-18 16:59 043 4 gusting 6 14.4
2018-Jan-18 16:44 040 4 gusting 6 14.4
2018-Jan-18 16:39 053 5 gusting 6 15.0
2018-Jan-18 16:29 036 4 gusting 7 15.0
2018-Jan-18 16:19 044 5 gusting 6 15.6
2018-Jan-18 16:14 032 5 gusting 7 15.6
2018-Jan-18 16:09 051 6 gusting 7 15.6
2018-Jan-18 16:04 051 6 gusting 10 15.6
2018-Jan-18 15:59 047 6 gusting 11 16.1
2018-Jan-18 15:54 039 5 gusting 7 16.1
2018-Jan-18 15:44 043 5 gusting 12 16.7
2018-Jan-18 15:39 086 5 gusting 7 16.7
2018-Jan-18 15:29 038 5 gusting 11 16.7
2018-Jan-18 15:24 058 5 gusting 10 16.7
2018-Jan-18 15:19 046 5 gusting 10 16.7
2018-Jan-18 15:14 075 5 gusting 8 16.7
2018-Jan-18 15:09 057 5 gusting 10 16.7
2018-Jan-18 15:04 056 5 gusting 10 16.7
2018-Jan-18 14:54 044 5 gusting 10 16.7
2018-Jan-18 14:49 068 6 gusting 7 16.7
2018-Jan-18 14:39 050 4 gusting 11 16.7
2018-Jan-18 14:29 066 4 gusting 6 16.7
2018-Jan-18 14:24 057 4 gusting 8 16.1
2018-Jan-18 14:19 044 4 gusting 11 16.1
2018-Jan-18 14:04 061 4 gusting 6 16.7
2018-Jan-18 13:59 075 4 gusting 6 16.7
2018-Jan-18 13:54 040 4 gusting 8 16.7
2018-Jan-18 13:49 013 4 gusting 6 16.1
2018-Jan-18 13:44 054 5 gusting 6 16.1
2018-Jan-18 13:39 054 6 gusting 8 16.1
2018-Jan-18 13:34 029 5 gusting 11 16.1
2018-Jan-18 13:29 041 5 gusting 10 16.1
2018-Jan-18 13:24 058 5 gusting 8 16.1
2018-Jan-18 13:19 044 5 gusting 8 16.1
2018-Jan-18 13:14 062 5 gusting 7 16.1
2018-Jan-18 13:09 039 4 gusting 7 16.1
2018-Jan-18 13:04 046 4 gusting 11 16.1
2018-Jan-18 12:54 092 4 gusting 6 15.6
2018-Jan-18 12:49 034 4 gusting 6 15.6
2018-Jan-18 12:44 092 4 gusting 7 15.6
2018-Jan-18 12:39 025 4 gusting 6 15.6
2018-Jan-18 12:34 046 3 gusting 8 15.6
2018-Jan-18 12:29 044 2 gusting 6 15.6
2018-Jan-18 12:24 053 2 gusting 5 15.6
2018-Jan-18 12:19 074 1 gusting 5 16.1
2018-Jan-18 12:09 333 1 gusting 5 15.6
2018-Jan-18 12:04 224 1 gusting 4 15.6
2018-Jan-18 11:59 155 1 gusting 4 15.6
2018-Jan-18 11:54 138 2 gusting 4 15.6
2018-Jan-18 11:49 184 2 gusting 4 15.0
2018-Jan-18 11:44 149 2 gusting 5 15.0
2018-Jan-18 11:39 217 2 gusting 5 15.0
2018-Jan-18 11:34 168 2 gusting 6 14.4
2018-Jan-18 11:19 194 4 gusting 6 13.9
2018-Jan-18 11:14 201 4 gusting 6 13.9
2018-Jan-18 11:09 196 4 gusting 6 13.9
2018-Jan-18 10:59 197 4 gusting 6 13.3
2018-Jan-18 10:54 208 4 gusting 6 13.3
2018-Jan-18 10:49 226 4 gusting 6 12.8
2018-Jan-18 10:44 212 4 gusting 6 12.8
2018-Jan-18 10:39 185 4 gusting 6 12.8
2018-Jan-18 10:34 191 4 gusting 6 12.8
2018-Jan-18 10:29 227 4 gusting 7 12.8
2018-Jan-18 10:24 196 4 gusting 6 12.2
2018-Jan-18 10:19 227 5 gusting 6 12.2
2018-Jan-18 10:14 199 5 gusting 7 11.7
2018-Jan-18 10:04 196 4 gusting 7 11.7
2018-Jan-18 09:59 188 4 gusting 6 11.7
2018-Jan-18 09:54 207 4 gusting 6 11.7
2018-Jan-18 09:39 230 4 gusting 6 11.1
2018-Jan-18 09:34 206 4 gusting 6 10.6
2018-Jan-18 09:29 204 4 gusting 5 10.6
2018-Jan-18 09:24 229 4 gusting 6 10.6
2018-Jan-18 09:19 202 4 gusting 5 10.6
2018-Jan-18 09:14 228 4 gusting 6 10.0
2018-Jan-18 09:09 194 4 gusting 6 10.0
2018-Jan-18 09:04 210 4 gusting 6 10.0
2018-Jan-18 08:59 214 4 gusting 6 10.0
2018-Jan-18 08:44 192 5 gusting 6 9.4
2018-Jan-18 08:34 173 5 gusting 7 8.9
2018-Jan-18 08:29 182 5 gusting 8 8.9
2018-Jan-18 08:24 182 4 gusting 6 8.9
2018-Jan-18 08:19 202 4 gusting 6 8.9
2018-Jan-18 08:14 191 3 gusting 6 8.9
2018-Jan-18 08:04 210 3 gusting 6 8.3
2018-Jan-18 07:59 206 4 gusting 4 8.3
2018-Jan-18 07:54 208 4 gusting 6 8.3
2018-Jan-18 07:49 197 4 gusting 6 8.3
2018-Jan-18 07:44 209 4 gusting 6 8.3
2018-Jan-18 07:39 193 4 gusting 5 8.3
2018-Jan-18 07:34 182 4 gusting 6 8.3
2018-Jan-18 07:29 203 4 gusting 5 7.8
2018-Jan-18 07:19 205 4 gusting 6 7.8
2018-Jan-18 07:14 191 3 gusting 6 7.8
2018-Jan-18 07:09 175 2 gusting 6 7.8
2018-Jan-18 07:04 189 2 gusting 5 7.8
2018-Jan-18 06:59 172 1 gusting 5 8.3
2018-Jan-18 06:44 193 2 gusting 4 8.3
2018-Jan-18 06:39 201 2 gusting 5 8.3
2018-Jan-18 06:34 112 2 gusting 4 8.3
2018-Jan-18 06:29 176 1 gusting 4 8.3
2018-Jan-18 06:24 280 1 gusting 4 8.9
2018-Jan-18 06:19 285 1 gusting 2 8.9
2018-Jan-18 06:14 285 2 gusting 4 8.9
2018-Jan-18 06:09 285 2 gusting 2 8.9
2018-Jan-18 06:04 285 3 gusting 5 8.9
2018-Jan-18 05:59 267 4 gusting 4 8.9
2018-Jan-18 05:54 229 4 gusting 6 8.9
2018-Jan-18 05:44 187 4 gusting 5 8.9
2018-Jan-18 05:39 196 4 gusting 6 8.9
2018-Jan-18 05:34 168 4 gusting 5 8.9
2018-Jan-18 05:29 172 4 gusting 6 8.9
2018-Jan-18 05:24 176 4 gusting 5 8.9
2018-Jan-18 05:19 178 4 gusting 6 8.9
2018-Jan-18 05:14 200 4 gusting 6 8.9
2018-Jan-18 05:09 142 4 gusting 5 8.9
2018-Jan-18 05:04 197 4 gusting 6 8.9
2018-Jan-18 04:59 179 4 gusting 6 8.9
2018-Jan-18 04:54 181 4 gusting 5 8.9
2018-Jan-18 04:49 166 4 gusting 5 8.9
2018-Jan-18 04:44 197 4 gusting 5 8.3
2018-Jan-18 04:39 150 4 gusting 5 8.3
2018-Jan-18 04:34 160 4 gusting 6 8.9
2018-Jan-18 04:29 167 4 gusting 5 8.9
2018-Jan-18 04:24 191 2 gusting 5 8.9
2018-Jan-18 04:14 160 2 gusting 5 9.4
2018-Jan-18 04:09 154 1 gusting 5 9.4
2018-Jan-18 04:04 204 1 gusting 4 9.4
2018-Jan-18 03:59 219 1 gusting 2 9.4
2018-Jan-18 03:49 203 2 gusting 2 8.9
2018-Jan-18 03:44 204 2 gusting 6 8.9
2018-Jan-18 03:34 182 2 gusting 5 8.9
2018-Jan-18 03:24 171 2 gusting 5 8.9
2018-Jan-18 03:19 180 1 gusting 5 8.9
2018-Jan-18 03:09 182 1 gusting 4 8.9
2018-Jan-18 03:04 182 1 gusting 5 8.9
2018-Jan-18 02:59 182 1 gusting 2 8.9
2018-Jan-18 02:49 182 0 gusting 2 8.9
2018-Jan-18 02:44 182 1 gusting 2 8.9
2018-Jan-18 02:39 182 1 gusting 1 8.9
2018-Jan-18 02:34 182 1 gusting 4 8.9
2018-Jan-18 02:29 182 1 gusting 2 8.9
2018-Jan-18 02:24 182 1 gusting 4 8.9
2018-Jan-18 02:19 182 1 gusting 4 8.9
2018-Jan-18 02:14 182 1 gusting 1 8.9
2018-Jan-18 02:09 182 1 gusting 4 8.9
2018-Jan-18 02:04 182 1 gusting 4 8.9
2018-Jan-18 01:59 182 0 gusting 2 9.4
2018-Jan-18 01:54 182 1 gusting 1 9.4
2018-Jan-18 01:49 182 1 gusting 2 9.4
2018-Jan-18 01:44 182 1 gusting 1 9.4
2018-Jan-18 01:39 182 1 gusting 4 9.4
2018-Jan-18 01:29 182 1 gusting 4 9.4
2018-Jan-18 01:19 182 2 gusting 4 9.4
2018-Jan-18 01:14 182 2 gusting 4 9.4
2018-Jan-18 01:09 182 2 gusting 4 9.4
2018-Jan-18 01:04 183 2 gusting 4 9.4
2018-Jan-18 00:59 171 1 gusting 4 9.4
2018-Jan-18 00:54 167 1 gusting 4 9.4
2018-Jan-18 00:49 171 0 gusting 4 9.4
2018-Jan-18 00:44 174 0 gusting 2 9.4
2018-Jan-18 00:39 174 0 gusting 1 9.4
2018-Jan-18 00:34 174 1 gusting 1 9.4
2018-Jan-18 00:29 174 1 gusting 2 9.4
2018-Jan-18 00:24 174 1 gusting 2 9.4
2018-Jan-18 00:19 174 1 gusting 4 9.4
2018-Jan-18 00:09 088 9.4
2018-Jan-17 23:59 015 0 gusting 1 10.0
2018-Jan-17 23:54 015 1 gusting 2 10.0
2018-Jan-17 23:49 015 1 gusting 2 10.0
2018-Jan-17 23:44 015 0 gusting 1 10.0
2018-Jan-17 23:39 015 10.6
2018-Jan-17 23:34 015 10.6
2018-Jan-17 23:24 015 10.6
2018-Jan-17 23:19 015 10.6
2018-Jan-17 23:14 015 0 10.6
2018-Jan-17 23:04 015 0 gusting 1 10.6
2018-Jan-17 22:59 015 0 gusting 1 10.6
2018-Jan-17 22:54 015 0 gusting 1 11.1
2018-Jan-17 22:49 015 11.1
2018-Jan-17 22:44 015 0 gusting 1 11.1
2018-Jan-17 22:39 015 0 gusting 1 11.1
2018-Jan-17 22:34 015 1 gusting 1 11.1
2018-Jan-17 22:29 015 1 gusting 1 11.1
2018-Jan-17 22:19 015 0 gusting 1 11.7